DL5ARK Weather Reports


Display with metric or nautical units.
time (UTC)temp
F
wind
direction
speed
MPH
gust
MPH
rain 1hr
in
rain 24hr
in
rain mn
in
humidity
%
barometer
mb
20260904135405 80 337 11.0 11.0 0.00 0.00 0.00 56 999.5
20260904134806 79 247 5.0 5.0 0.00 0.00 0.00 57 999.5
20260904134506 79 225 13.0 13.0 0.00 0.00 0.00 56 999.8
20260904134206 79 225 7.0 7.0 0.00 0.00 0.00 58 999.8
20260904133906 80 225 6.0 6.0 0.00 0.00 0.00 59 999.8
20260904133606 79 225 6.0 6.0 0.00 0.00 0.00 60 999.8
20260904133309 79 225 8.0 8.0 0.00 0.00 0.00 60 999.8
20260904133006 78 225 4.0 4.0 0.00 0.00 0.00 59 999.8
20260904132706 78 225 1.0 1.0 0.00 0.00 0.00 60 999.8
20260904132405 78 337 4.0 4.0 0.00 0.00 0.00 60 999.8
20260904132106 78 180 5.0 5.0 0.00 0.00 0.00 60 999.8
20260904131805 78 202 8.0 8.0 0.00 0.00 0.00 59 1000.0
20260904131508 78 180 4.0 4.0 0.00 0.00 0.00 61 1000.0
20260904131205 79 202 2.0 2.0 0.00 0.00 0.00 60 1000.0
20260904130905 79 225 5.0 5.0 0.00 0.00 0.00 60 1000.3
20260904130605 79 225 3.0 3.0 0.00 0.00 0.00 59 1000.3
20260904130307 79 225 4.0 4.0 0.00 0.00 0.00 59 1000.3
20260904130006 80 247 3.0 3.0 0.00 0.00 0.00 60 1000.3
20260904125709 80 225 5.0 5.0 0.00 0.00 0.00 60 1000.3
20260904125405 80 337 9.0 9.0 0.00 0.00 0.00 61 1000.3
20260904125105 80 247 8.0 8.0 0.00 0.00 0.00 60 1000.3
20260904124806 80 337 4.0 4.0 0.00 0.00 0.00 62 1000.3
20260904124505 79 202 6.0 6.0 0.00 0.00 0.00 62 1000.5
20260904124206 78 225 8.0 8.0 0.00 0.00 0.00 61 1000.5
20260904123606 79 225 5.0 5.0 0.00 0.00 0.00 62 1000.8
20260904123306 79 270 6.0 6.0 0.00 0.00 0.00 63 1000.8
20260904123009 77 202 10.0 10.0 0.00 0.00 0.00 63 1000.8
20260904122705 77 225 9.0 9.0 0.00 0.00 0.00 62 1000.8
20260904122406 78 225 4.0 4.0 0.00 0.00 0.00 63 1001.0
20260904122106 78 247 7.0 7.0 0.00 0.00 0.00 62 1001.0
20260904121506 78 270 5.0 5.0 0.00 0.00 0.00 63 1001.3
20260904121205 78 180 8.0 9.0 0.00 0.00 0.00 63 1001.3
20260904120906 78 225 7.0 7.0 0.00 0.00 0.00 63 1001.3
20260904120605 78 202 5.0 5.0 0.00 0.00 0.00 64 1001.3
20260904120306 77 225 7.0 7.0 0.00 0.00 0.00 64 1001.3
20260904120009 77 225 4.0 4.0 0.00 0.00 0.00 64 1001.5
20260904115706 77 180 8.0 8.0 0.00 0.00 0.00 63 1001.5
20260904115407 78 247 10.0 10.0 0.00 0.00 0.00 64 1001.5
20260904115105 78 337 5.0 5.0 0.00 0.00 0.00 64 1001.5
20260904114805 78 247 9.0 9.0 0.00 0.00 0.00 65 1001.5
20260904114506 79 225 5.0 5.0 0.00 0.00 0.00 65 1001.5
20260904114205 79 225 6.0 6.0 0.00 0.00 0.00 66 1001.5
20260904113606 77 270 4.0 4.0 0.00 0.00 0.00 67 1001.8
20260904113305 76 247 5.0 5.0 0.00 0.00 0.00 66 1001.8
20260904113005 76 202 8.0 8.0 0.00 0.00 0.00 67 1001.8
20260904112705 77 337 4.0 4.0 0.00 0.00 0.00 68 1001.8
20260904112406 76 247 4.0 4.0 0.00 0.00 0.00 67 1001.8
20260904111805 75 337 7.0 7.0 0.00 0.00 0.00 68 1001.8
20260904111506 75 202 7.0 7.0 0.00 0.00 0.00 68 1001.8
20260904111205 74 225 9.0 9.0 0.00 0.00 0.00 68 1002.0
20260904110905 75 247 4.0 4.0 0.00 0.00 0.00 69 1002.0
20260904110605 75 225 5.0 5.0 0.00 0.00 0.00 68 1002.3
20260904110306 74 225 6.0 6.0 0.00 0.00 0.00 69 1002.3
20260904110009 75 0 5.0 5.0 0.00 0.00 0.00 69 1002.3
20260904105706 75 225 4.0 4.0 0.00 0.00 0.00 68 1002.3
20260904105406 75 202 5.0 5.0 0.00 0.00 0.00 69 1002.3
20260904105106 75 225 4.0 4.0 0.00 0.00 0.00 69 1002.3
20260904104806 74 337 9.0 9.0 0.00 0.00 0.00 68 1002.3
20260904104505 74 225 13.0 13.0 0.00 0.00 0.00 69 1002.3
20260904104206 74 225 12.0 12.0 0.00 0.00 0.00 69 1002.3
20260904103606 74 202 3.0 3.0 0.00 0.00 0.00 70 1002.3
20260904103306 74 225 5.0 5.0 0.00 0.00 0.00 69 1002.0
20260904103006 74 270 5.0 5.0 0.00 0.00 0.00 68 1002.0
20260904102706 74 225 10.0 10.0 0.00 0.00 0.00 69 1002.3
20260904102405 74 225 14.0 14.0 0.00 0.00 0.00 68 1002.3
20260904102106 74 225 10.0 11.0 0.00 0.00 0.00 68 1002.3
20260904101505 75 225 8.0 8.0 0.00 0.00 0.00 70 1002.3
20260904101206 75 337 9.0 9.0 0.00 0.00 0.00 71 1002.3
20260904100905 75 225 8.0 8.0 0.00 0.00 0.00 70 1002.3
20260904100605 75 225 5.0 5.0 0.00 0.00 0.00 72 1002.3
20260904100309 75 225 6.0 6.0 0.00 0.00 0.00 72 1002.5
20260904100006 75 225 7.0 8.0 0.00 0.00 0.00 72 1002.5
20260904095706 75 337 10.0 10.0 0.00 0.00 0.00 73 1002.5
20260904095405 75 270 5.0 5.0 0.00 0.00 0.00 75 1002.5
20260904095106 75 225 11.0 11.0 0.00 0.00 0.00 75 1002.5
20260904094806 75 337 4.0 4.0 0.00 0.00 0.00 76 1002.5
20260904094505 73 225 6.0 7.0 0.00 0.00 0.00 76 1002.5
20260904093905 74 270 5.0 5.0 0.00 0.00 0.00 77 1002.8
20260904093606 73 270 5.0 5.0 0.00 0.00 0.00 78 1002.8
20260904093306 73 247 10.0 10.0 0.00 0.00 0.00 78 1003.0
20260904093005 72 225 7.0 7.0 0.00 0.00 0.00 78 1002.8
20260904092705 72 225 7.0 7.0 0.00 0.00 0.00 78 1003.0
20260904092105 72 270 4.0 4.0 0.00 0.00 0.00 79 1003.0
20260904091806 72 270 6.0 6.0 0.00 0.00 0.00 80 1003.3
20260904091506 72 225 7.0 7.0 0.00 0.00 0.00 80 1003.3
20260904091205 71 225 8.0 8.0 0.00 0.00 0.00 80 1003.3
20260904090905 71 202 6.0 6.0 0.00 0.00 0.00 80 1003.3
20260904090609 71 337 6.0 6.0 0.00 0.00 0.00 80 1003.3
20260904090306 70 225 10.0 10.0 0.00 0.00 0.00 81 1003.3
20260904090006 70 225 2.0 2.0 0.00 0.00 0.00 80 1003.3
20260904085706 70 225 7.0 8.0 0.00 0.00 0.00 80 1003.3
20260904085405 70 270 6.0 6.0 0.00 0.00 0.00 81 1003.3
20260904085106 70 270 8.0 8.0 0.00 0.00 0.00 81 1003.3
20260904084506 70 247 12.0 12.0 0.00 0.00 0.00 83 1003.5
20260904084206 70 337 6.0 6.0 0.00 0.00 0.00 83 1003.5
20260904083905 69 247 10.0 10.0 0.00 0.00 0.00 84 1003.5
20260904083606 69 225 8.0 8.0 0.00 0.00 0.00 85 1003.5
20260904083305 68 337 6.0 6.0 0.00 0.00 0.00 85 1003.5
20260904083006 68 225 4.0 4.0 0.00 0.00 0.00 85 1003.5
20260904082405 68 270 3.0 3.0 0.00 0.00 0.00 86 1003.5
20260904082105 68 202 8.0 8.0 0.00 0.00 0.00 86 1003.5
20260904081806 68 225 3.0 3.0 0.00 0.00 0.00 88 1003.5
20260904081506 68 225 6.0 6.0 0.00 0.00 0.00 88 1003.8
20260904080905 68 225 4.0 4.0 0.00 0.00 0.00 89 1003.5
20260904080606 67 337 4.0 4.0 0.00 0.00 0.00 89 1003.5
20260904080306 67 225 5.0 6.0 0.00 0.00 0.00 89 1003.5
20260904080006 66 202 3.0 3.0 0.00 0.00 0.00 89 1003.8
20260904075705 66 292 0.0 0.0 0.00 0.00 0.00 89 1003.5
20260904075405 65 90 1.0 1.0 0.00 0.00 0.00 89 1003.8
20260904074806 65 135 0.0 0.0 0.00 0.00 0.00 89 1003.8
20260904074506 65 337 0.0 0.0 0.00 0.00 0.00 89 1003.8
20260904074205 65 337 0.0 0.0 0.00 0.00 0.00 89 1003.8
20260904073905 65 90 1.0 1.0 0.00 0.00 0.00 90 1004.0
20260904073609 65 90 1.0 1.0 0.00 0.00 0.00 90 1004.2
20260904073306 65 90 1.0 1.0 0.00 0.00 0.00 90 1004.2
20260904073006 64 90 0.0 0.0 0.00 0.00 0.00 90 1004.2
20260904072705 64 67 1.0 1.0 0.00 0.00 0.00 90 1004.2
20260904072406 64 90 0.0 0.0 0.00 0.00 0.00 90 1004.2
20260904072106 63 90 1.0 1.0 0.00 0.00 0.00 90 1004.2
20260904071809 63 337 1.0 1.0 0.00 0.00 0.00 90 1004.5
20260904071506 63 112 0.0 0.0 0.00 0.00 0.00 90 1004.5
20260904071206 63 90 0.0 0.0 0.00 0.00 0.00 91 1004.5
20260904070906 63 112 0.0 0.0 0.00 0.00 0.00 91 1004.5
20260904070606 62 135 0.0 0.0 0.00 0.00 0.00 91 1004.7
20260904070307 62 337 1.0 1.0 0.00 0.00 0.00 91 1004.5
20260904070007 62 337 0.0 0.0 0.00 0.00 0.00 91 1004.7
20260904065708 62 90 0.0 0.0 0.00 0.00 0.00 91 1004.7
20260904065405 62 90 0.0 0.0 0.00 0.00 0.00 91 1004.5
20260904065106 62 337 0.0 0.0 0.00 0.00 0.00 92 1004.7
20260904064806 61 90 0.0 0.0 0.00 0.00 0.00 92 1004.7
20260904064506 61 90 1.0 1.0 0.00 0.00 0.00 92 1004.7
20260904064206 61 135 1.0 1.0 0.00 0.00 0.00 91 1004.7
20260904063906 61 90 1.0 1.0 0.00 0.00 0.00 91 1004.7
20260904063608 60 135 0.0 0.0 0.00 0.00 0.00 91 1004.7
20260904063306 60 337 0.0 0.0 0.00 0.00 0.00 91 1004.7
20260904063006 60 112 0.0 0.0 0.00 0.00 0.00 91 1004.7
20260904062706 60 90 0.0 0.0 0.00 0.00 0.00 92 1004.7
20260904062406 60 337 0.0 0.0 0.00 0.00 0.00 92 1004.5
20260904062105 60 112 0.0 0.0 0.00 0.00 0.00 92 1004.5
20260904061506 60 112 0.0 0.0 0.00 0.00 0.00 92 1004.5
20260904061206 60 112 0.0 0.0 0.00 0.00 0.00 92 1004.5
20260904060905 60 112 0.0 0.0 0.00 0.00 0.00 92 1004.2
20260904060605 60 112 0.0 0.0 0.00 0.00 0.00 92 1004.7
20260904060305 60 90 0.0 0.0 0.00 0.00 0.00 92 1004.7
20260904060006 60 90 1.0 1.0 0.00 0.00 0.00 92 1004.7
20260904055406 60 90 1.0 1.0 0.00 0.00 0.00 92 1004.5
20260904055106 59 90 1.0 1.0 0.00 0.00 0.00 92 1004.5
20260904054806 59 90 1.0 1.0 0.00 0.00 0.00 93 1004.5
20260904054505 59 90 1.0 1.0 0.00 0.00 0.00 92 1004.5
20260904054205 59 67 2.0 2.0 0.00 0.00 0.00 92 1004.5
20260904053606 58 67 0.0 0.0 0.00 0.00 0.00 91 1004.5
20260904053305 58 90 0.0 0.0 0.00 0.00 0.00 91 1004.5
20260904053005 58 90 0.0 0.0 0.00 0.00 0.00 91 1004.7
20260904052708 58 135 0.0 0.0 0.00 0.00 0.00 91 1004.7
20260904052405 58 135 0.0 0.0 0.00 0.00 0.00 91 1004.7
20260904052105 58 135 0.0 0.0 0.00 0.00 0.00 91 1004.5
20260904051506 58 135 0.0 0.0 0.00 0.00 0.00 91 1004.5
20260904051206 58 157 0.0 0.0 0.00 0.00 0.00 90 1004.7
20260904050906 57 180 0.0 0.0 0.00 0.00 0.00 91 1004.5
20260904050606 57 180 1.0 1.0 0.00 0.00 0.00 90 1004.7
20260904050305 57 135 0.0 0.0 0.00 0.00 0.00 90 1004.5
20260904050009 57 112 0.0 0.0 0.00 0.00 0.00 90 1004.7
20260904045705 57 90 0.0 0.0 0.00 0.00 0.00 90 1004.7
20260904045406 57 67 1.0 1.0 0.00 0.00 0.00 90 1004.7
20260904045105 57 0 0.0 0.0 0.00 0.00 0.00 90 1004.7
20260904044806 56 0 0.0 0.0 0.00 0.00 0.00 90 1004.7
20260904044506 57 67 0.0 0.0 0.00 0.00 0.00 90 1004.7
20260904044205 56 337 0.0 0.0 0.00 0.00 0.00 90 1004.7
20260904043605 56 67 1.0 1.0 0.00 0.00 0.00 90 1004.7
20260904043306 56 315 0.0 0.0 0.00 0.00 0.00 89 1004.7
20260904043005 56 67 0.0 0.0 0.00 0.00 0.00 89 1004.7
20260904042705 56 0 3.0 3.0 0.00 0.00 0.00 89 1004.7
20260904042406 56 135 0.0 0.0 0.00 0.00 0.00 89 1004.7
20260904042106 55 225 2.0 2.0 0.00 0.00 0.00 88 1004.7
20260904041808 55 225 1.0 1.0 0.00 0.00 0.00 88 1004.7
20260904041506 55 67 0.0 0.0 0.00 0.00 0.00 88 1004.7
20260904041205 55 337 0.0 0.0 0.00 0.00 0.00 88 1004.7
20260904040906 55 90 0.0 0.0 0.00 0.00 0.00 87 1004.7
20260904040606 54 0 1.0 1.0 0.00 0.00 0.00 87 1005.0
20260904040305 55 90 0.0 0.0 0.00 0.00 0.00 87 1004.7
20260904040007 55 337 0.0 0.0 0.00 0.00 0.00 88 1005.0
20260904035406 55 180 0.0 0.0 0.00 0.00 0.00 88 1005.0
20260904035106 55 180 0.0 0.0 0.00 0.00 0.00 88 1005.0
20260904034806 55 337 0.0 0.0 0.00 0.00 0.00 88 1005.2
20260904034506 55 202 0.0 0.0 0.00 0.00 0.00 87 1005.2
20260904034206 55 202 0.0 0.0 0.00 0.00 0.00 88 1005.2
20260904033906 55 225 0.0 0.0 0.00 0.00 0.00 88 1005.2
20260904033306 55 337 0.0 0.0 0.00 0.00 0.00 87 1005.2
20260904033006 55 337 0.0 0.0 0.00 0.00 0.00 88 1005.2
20260904032705 55 337 0.0 0.0 0.00 0.00 0.00 87 1005.0
20260904032406 55 337 0.0 0.0 0.00 0.00 0.00 87 1005.0
20260904032106 55 45 0.0 0.0 0.00 0.00 0.00 87 1005.0
20260904031806 55 135 0.0 0.0 0.00 0.00 0.00 87 1005.0
20260904031205 55 135 0.0 0.0 0.00 0.00 0.00 87 1005.0
20260904030906 55 135 0.0 0.0 0.00 0.00 0.00 87 1005.0
20260904030606 55 90 0.0 0.0 0.00 0.00 0.00 87 1005.0
20260904030306 55 90 0.0 0.0 0.00 0.00 0.00 87 1005.2
20260904030006 55 67 0.0 0.0 0.00 0.00 0.00 87 1005.2
20260904025706 55 67 0.0 0.0 0.00 0.00 0.00 87 1005.2
20260904025106 55 315 0.0 0.0 0.00 0.00 0.00 87 1005.2
20260904024806 55 315 0.0 0.0 0.00 0.00 0.00 87 1005.2
20260904024506 55 90 0.0 0.0 0.00 0.00 0.00 87 1005.2
20260904024206 55 180 0.0 0.0 0.00 0.00 0.00 87 1005.2
20260904023906 55 180 0.0 0.0 0.00 0.00 0.00 88 1005.2
20260904023606 55 180 0.0 0.0 0.00 0.00 0.00 88 1005.2
20260904023005 56 180 0.0 0.0 0.00 0.00 0.00 88 1005.2
20260904022706 56 180 0.0 0.0 0.00 0.00 0.00 88 1005.2
20260904022405 56 180 0.0 0.0 0.00 0.00 0.00 88 1005.5
20260904022106 56 90 0.0 0.0 0.00 0.00 0.00 88 1005.5
20260904021805 56 90 0.0 0.0 0.00 0.00 0.00 88 1005.5
20260904021506 56 0 0.0 0.0 0.00 0.00 0.00 88 1005.5
20260904020906 56 90 2.0 2.0 0.00 0.00 0.00 87 1005.7
20260904020606 56 225 0.0 0.0 0.00 0.00 0.00 87 1005.7
20260904020305 56 337 0.0 0.0 0.00 0.00 0.00 87 1005.7
20260904020006 55 90 0.0 0.0 0.00 0.00 0.00 87 1005.7
20260904015706 55 90 0.0 0.0 0.00 0.00 0.00 87 1005.7
20260904015406 55 90 0.0 0.0 0.00 0.00 0.00 87 1005.7
20260904014805 55 90 0.0 0.0 0.00 0.00 0.00 87 1005.7
20260904014505 55 180 0.0 0.0 0.00 0.00 0.00 87 1005.7
20260904014206 55 180 0.0 0.0 0.00 0.00 0.00 87 1005.7
20260904013906 55 337 0.0 0.0 0.00 0.00 0.00 88 1005.7
20260904013605 56 180 0.0 0.0 0.00 0.00 0.00 88 1005.7
20260904013306 56 180 0.0 0.0 0.00 0.00 0.00 88 1005.7
20260904012705 56 135 0.0 0.0 0.00 0.00 0.00 88 1005.7
20260904012406 56 337 0.0 0.0 0.00 0.00 0.00 88 1006.0
20260904012106 56 67 0.0 0.0 0.00 0.00 0.00 88 1006.0
20260904011807 56 180 0.0 0.0 0.00 0.00 0.00 87 1006.0
20260904011505 56 45 0.0 0.0 0.00 0.00 0.00 87 1006.2
20260904011206 55 270 1.0 2.0 0.00 0.00 0.00 86 1006.2
20260904010606 55 0 0.0 0.0 0.00 0.00 0.00 86 1006.2
20260904010307 54 0 1.0 1.0 0.00 0.00 0.00 86 1006.2
20260904010005 54 67 0.0 0.0 0.00 0.00 0.00 85 1006.0
20260904005706 54 90 1.0 1.0 0.00 0.00 0.00 85 1005.7
20260904005405 54 180 0.0 0.0 0.00 0.00 0.00 85 1006.2
20260904005105 54 0 0.0 0.0 0.00 0.00 0.00 85 1006.2
20260904004507 54 337 0.0 0.0 0.00 0.00 0.00 85 1006.2
20260904004206 54 270 0.0 0.0 0.00 0.00 0.00 85 1006.2
20260904003906 54 270 1.0 1.0 0.00 0.00 0.00 85 1006.2
20260904003305 55 180 0.0 0.0 0.00 0.00 0.00 85 1006.2
20260904003006 54 337 0.0 0.0 0.00 0.00 0.00 85 1006.2
20260904002406 55 180 0.0 0.0 0.00 0.00 0.00 85 1006.2
20260904002105 55 180 0.0 0.0 0.00 0.00 0.00 85 1006.2
20260904001806 55 90 0.0 0.0 0.00 0.00 0.00 85 1006.2
20260904001507 55 337 0.0 0.0 0.00 0.00 0.00 84 1006.2
20260904001206 55 180 0.0 0.0 0.00 0.00 0.00 84 1006.5
20260904000905 54 337 0.0 0.0 0.00 0.00 0.00 85 1006.5
20260904000305 55 157 0.0 0.0 0.00 0.00 0.00 85 1006.7
20260904000005 55 157 0.0 0.0 0.00 0.00 0.00 85 1006.7
20260903235706 55 90 0.0 0.0 0.00 0.00 0.00 85 1006.7
20260903235406 55 90 0.0 0.0 0.00 0.00 0.00 85 1006.7
20260903235106 55 90 0.0 0.0 0.00 0.00 0.00 85 1006.7
20260903234806 55 67 0.0 0.0 0.00 0.00 0.00 85 1006.5
20260903234509 55 67 0.0 0.0 0.00 0.00 0.00 86 1006.7
20260903234205 55 90 0.0 0.0 0.00 0.00 0.00 86 1006.7
20260903233906 55 90 0.0 0.0 0.00 0.00 0.00 85 1006.7
20260903233606 55 90 0.0 0.0 0.00 0.00 0.00 85 1006.7
20260903233305 56 337 0.0 0.0 0.00 0.00 0.00 85 1006.7
20260903233006 56 270 0.0 0.0 0.00 0.00 0.00 85 1007.0
20260903232706 56 337 0.0 0.0 0.00 0.00 0.00 85 1007.0
20260903232106 56 270 0.0 0.0 0.00 0.00 0.00 85 1007.2
20260903231806 56 270 0.0 0.0 0.00 0.00 0.00 85 1007.2
20260903231506 56 270 0.0 0.0 0.00 0.00 0.00 85 1007.0
20260903231206 56 337 0.0 0.0 0.00 0.00 0.00 85 1007.2
20260903230905 56 270 0.0 0.0 0.00 0.00 0.00 85 1007.2
20260903230606 56 337 0.0 0.0 0.00 0.00 0.00 85 1007.2
20260903230309 56 337 0.0 0.0 0.00 0.00 0.00 84 1007.0
20260903230005 56 90 0.0 0.0 0.00 0.00 0.00 85 1007.2
20260903225711 56 45 0.0 0.0 0.00 0.00 0.00 85 1007.2
20260903225405 56 45 0.0 0.0 0.00 0.00 0.00 85 1007.2
20260903225105 56 337 0.0 0.0 0.00 0.00 0.00 85 1007.2
20260903224806 57 337 0.0 0.0 0.00 0.00 0.00 86 1007.2
20260903224205 57 180 0.0 0.0 0.00 0.00 0.00 85 1007.2
20260903223906 57 180 0.0 0.0 0.00 0.00 0.00 85 1007.2
20260903223606 57 180 0.0 0.0 0.00 0.00 0.00 85 1007.2
20260903223306 57 180 0.0 0.0 0.00 0.00 0.00 85 1007.2
20260903223005 57 315 0.0 0.0 0.00 0.00 0.00 85 1007.2
20260903222407 57 315 0.0 0.0 0.00 0.00 0.00 84 1007.2
20260903222106 57 315 0.0 0.0 0.00 0.00 0.00 85 1007.2
20260903221806 57 315 0.0 0.0 0.00 0.00 0.00 85 1007.2
20260903221507 57 337 0.0 0.0 0.00 0.00 0.00 85 1007.2
20260903221205 57 315 0.0 0.0 0.00 0.00 0.00 84 1007.2
20260903220906 57 292 0.0 0.0 0.00 0.00 0.00 84 1007.2
20260903220305 57 337 0.0 0.0 0.00 0.00 0.00 84 1007.2
20260903220006 57 22 0.0 0.0 0.00 0.00 0.00 85 1007.2
20260903215706 57 337 0.0 0.0 0.00 0.00 0.08 85 1007.2
20260903215406 57 180 0.0 0.0 0.00 0.00 0.08 85 1007.2
20260903215106 57 337 0.0 0.0 0.00 0.00 0.08 85 1007.2
20260903214806 57 90 0.0 0.0 0.00 0.00 0.08 85 1007.2
20260903214508 57 90 0.0 0.0 0.00 0.00 0.08 85 1007.2
20260903214206 57 67 0.0 0.0 0.00 0.00 0.08 84 1007.2
20260903213905 57 45 0.0 0.0 0.00 0.00 0.08 84 1007.2
20260903213605 57 315 0.0 0.0 0.00 0.00 0.08 84 1007.2
20260903213305 57 67 0.0 0.0 0.00 0.00 0.08 84 1007.2
20260903213006 57 67 0.0 0.0 0.00 0.00 0.08 84 1006.7
20260903212705 57 22 0.0 0.0 0.00 0.00 0.08 84 1007.0
20260903212408 57 22 0.0 0.0 0.00 0.00 0.08 84 1007.2
20260903212105 57 22 0.0 0.0 0.00 0.00 0.08 83 1007.2
20260903211805 57 0 0.0 0.0 0.00 0.00 0.08 83 1007.2
20260903211505 57 337 0.0 0.0 0.00 0.00 0.08 83 1007.2
20260903211206 57 22 0.0 0.0 0.00 0.00 0.08 84 1007.2
20260903210606 57 337 0.0 0.0 0.00 0.00 0.08 84 1007.2
20260903210306 57 0 0.0 0.0 0.00 0.00 0.08 84 1007.0
20260903210006 57 180 0.0 0.0 0.00 0.00 0.08 83 1007.2
20260903205706 57 180 0.0 0.0 0.00 0.00 0.08 83 1007.2
20260903205407 57 180 0.0 0.0 0.00 0.00 0.08 84 1007.2
20260903205108 57 180 0.0 0.0 0.00 0.00 0.08 84 1007.2
20260903204806 57 180 0.0 0.0 0.00 0.00 0.08 84 1007.0
20260903204505 57 180 0.0 0.0 0.00 0.00 0.08 84 1007.2
20260903204206 57 337 0.0 0.0 0.00 0.00 0.08 84 1007.2
20260903203906 57 67 0.0 0.0 0.00 0.00 0.08 84 1007.2
20260903203605 57 337 0.0 0.0 0.00 0.00 0.08 84 1007.2
20260903203306 58 135 0.0 0.0 0.00 0.00 0.08 84 1007.2
20260903202707 57 157 1.0 1.0 0.00 0.00 0.08 83 1007.5
20260903202406 58 337 2.0 2.0 0.00 0.00 0.08 84 1007.7
20260903202106 58 90 0.0 0.0 0.00 0.00 0.08 84 1007.5
20260903201806 58 292 0.0 0.0 0.00 0.00 0.08 84 1007.5
20260903201505 58 90 0.0 0.0 0.00 0.00 0.08 84 1007.2
20260903201205 58 225 0.0 0.0 0.00 0.00 0.08 84 1007.2
20260903200605 59 225 0.0 0.0 0.00 0.00 0.08 84 1007.2
20260903200305 59 225 0.0 0.0 0.00 0.00 0.08 84 1007.5
20260903200006 59 225 0.0 0.0 0.00 0.00 0.08 84 1007.5
20260903195706 59 337 0.0 0.0 0.00 0.00 0.08 84 1007.2
20260903195406 59 225 0.0 0.0 0.00 0.00 0.08 85 1007.2
20260903195108 59 225 0.0 0.0 0.00 0.00 0.08 84 1007.2
20260903194806 59 225 0.0 0.0 0.00 0.00 0.08 84 1007.2
20260903194506 59 180 0.0 0.0 0.00 0.00 0.08 84 1007.2
20260903194205 59 180 0.0 0.0 0.00 0.00 0.08 84 1007.2
20260903193907 59 90 0.0 0.0 0.00 0.00 0.08 84 1007.2
20260903193606 59 337 0.0 0.0 0.00 0.00 0.08 84 1007.0
20260903193305 59 337 0.0 0.0 0.00 0.00 0.08 84 1007.2
20260903192706 59 315 0.0 0.0 0.00 0.00 0.08 84 1007.2
20260903192405 59 270 0.0 0.0 0.00 0.00 0.08 84 1007.2
20260903192106 59 270 0.0 0.0 0.00 0.00 0.08 84 1007.2
20260903191805 59 270 0.0 0.0 0.00 0.00 0.08 84 1007.2
20260903191505 59 45 0.0 0.0 0.00 0.00 0.08 84 1007.2
20260903190905 59 337 0.0 0.0 0.00 0.00 0.08 84 1007.0
20260903190606 59 112 0.0 0.0 0.00 0.00 0.08 84 1007.2
20260903190306 60 337 0.0 0.0 0.00 0.00 0.08 83 1007.0
20260903190006 59 90 0.0 0.0 0.00 0.00 0.08 83 1007.2
20260903185406 60 180 0.0 0.0 0.00 0.00 0.08 83 1007.2
20260903185105 60 337 0.0 0.0 0.00 0.00 0.08 82 1007.2
20260903184806 60 67 0.0 0.0 0.00 0.00 0.08 82 1007.2
20260903184506 60 0 0.0 0.0 0.00 0.00 0.08 82 1007.2
20260903184207 60 0 0.0 0.0 0.00 0.00 0.08 82 1007.2
20260903183906 59 337 0.0 0.0 0.00 0.00 0.08 82 1007.5
20260903183609 59 0 0.0 0.0 0.00 0.00 0.08 82 1007.2
20260903183305 60 45 0.0 0.0 0.00 0.00 0.08 82 1007.5
20260903183006 60 45 0.0 0.0 0.00 0.00 0.08 82 1007.2
20260903182705 60 337 0.0 0.0 0.00 0.00 0.08 82 1007.0
20260903182406 60 45 0.0 0.0 0.00 0.00 0.08 82 1007.2
20260903182106 60 45 0.0 0.0 0.00 0.00 0.08 82 1007.2
20260903181807 60 90 0.0 0.0 0.00 0.00 0.08 82 1007.0
20260903181508 60 180 0.0 0.0 0.00 0.00 0.08 82 1007.2
20260903181206 60 337 0.0 0.0 0.00 0.00 0.08 82 1007.2
20260903180906 61 337 0.0 0.0 0.00 0.00 0.08 82 1007.2
20260903180606 61 67 0.0 0.0 0.00 0.00 0.08 83 1007.2
20260903180305 61 337 0.0 0.0 0.00 0.00 0.08 82 1007.2
20260903180005 61 0 1.0 1.0 0.00 0.00 0.08 82 1007.2
20260903175706 61 45 0.0 0.0 0.00 0.00 0.08 82 1007.2
20260903175106 61 337 0.0 0.0 0.00 0.00 0.08 82 1007.2
20260903174806 62 45 0.0 0.0 0.00 0.00 0.08 82 1007.2
20260903174506 62 67 0.0 0.0 0.00 0.00 0.08 82 1007.0
20260903174205 61 67 0.0 0.0 0.00 0.00 0.08 82 1007.0
20260903173906 62 337 0.0 0.0 0.00 0.00 0.08 82 1007.0
20260903173606 62 67 0.0 0.0 0.00 0.00 0.08 82 1007.0
20260903173308 62 67 0.0 0.0 0.00 0.00 0.08 82 1007.0
20260903173005 62 67 0.0 0.0 0.00 0.00 0.08 82 1007.0
20260903172706 62 90 0.0 0.0 0.00 0.00 0.08 82 1007.0
20260903172405 62 90 0.0 0.0 0.00 0.00 0.08 81 1007.0
20260903172106 62 67 1.0 1.0 0.00 0.00 0.08 82 1007.0
20260903171507 62 90 0.0 0.0 0.00 0.00 0.08 81 1006.7
20260903171206 62 90 0.0 0.0 0.00 0.00 0.08 81 1006.7
20260903170906 62 135 0.0 0.0 0.00 0.00 0.08 81 1006.7
20260903170606 63 135 0.0 0.0 0.00 0.00 0.08 81 1006.7
20260903170305 62 135 0.0 0.0 0.00 0.00 0.08 81 1006.7
20260903170005 62 135 0.0 0.0 0.00 0.00 0.08 81 1006.7
20260903165708 62 135 0.0 0.0 0.00 0.00 0.08 81 1006.7
20260903165405 62 135 0.0 0.0 0.00 0.00 0.08 81 1006.7
20260903165105 62 135 0.0 0.0 0.00 0.00 0.08 81 1007.0
20260903164806 62 135 0.0 0.0 0.00 0.00 0.08 81 1007.0
20260903164506 62 135 0.0 0.0 0.00 0.00 0.08 81 1007.0
20260903164206 62 337 0.0 0.0 0.00 0.00 0.08 81 1007.2
20260903163908 62 135 0.0 0.0 0.00 0.00 0.08 81 1007.0
20260903163605 62 135 0.0 0.0 0.00 0.00 0.08 81 1007.0
20260903163305 63 135 0.0 0.0 0.00 0.00 0.08 81 1007.2
20260903163006 63 135 0.0 0.0 0.00 0.00 0.08 81 1007.2
20260903162706 62 337 0.0 0.0 0.00 0.00 0.08 81 1007.2
20260903162405 62 337 0.0 0.0 0.00 0.00 0.08 81 1007.2
20260903161805 63 90 0.0 0.0 0.00 0.00 0.08 82 1007.2
20260903161505 63 90 0.0 0.0 0.00 0.00 0.08 81 1007.2
20260903161205 63 180 0.0 0.0 0.00 0.00 0.08 81 1007.2
20260903160905 63 112 0.0 0.0 0.00 0.00 0.08 81 1007.2
20260903160606 63 112 0.0 0.0 0.00 0.00 0.08 81 1007.2
20260903160306 63 135 0.0 0.0 0.00 0.00 0.08 81 1007.2
20260903155705 63 90 0.0 0.0 0.00 0.00 0.08 81 1007.2
20260903155406 63 90 0.0 0.0 0.00 0.00 0.08 81 1007.2
20260903155106 63 90 0.0 0.0 0.00 0.00 0.08 80 1007.2
20260903154806 63 90 0.0 0.0 0.00 0.00 0.08 81 1007.5
20260903154508 63 112 0.0 0.0 0.00 0.00 0.08 80 1007.2
20260903154207 63 90 0.0 0.0 0.00 0.00 0.08 80 1007.5
20260903153905 63 90 0.0 0.0 0.00 0.00 0.08 80 1007.5
20260903153606 63 90 0.0 0.0 0.00 0.00 0.08 80 1007.5
20260903153305 63 90 0.0 0.0 0.00 0.00 0.08 81 1007.5
20260903153005 63 90 0.0 0.0 0.00 0.00 0.08 81 1007.5
20260903152407 63 337 0.0 0.0 0.00 0.00 0.08 80 1007.5
20260903152106 63 90 0.0 0.0 0.00 0.00 0.08 80 1007.5
20260903151805 63 135 0.0 0.0 0.00 0.00 0.08 80 1007.5
20260903151505 63 135 0.0 0.0 0.00 0.00 0.08 80 1007.7
20260903151206 63 157 0.0 0.0 0.00 0.00 0.08 80 1007.5
20260903150606 63 180 0.0 0.0 0.00 0.00 0.08 79 1007.5
20260903150305 63 90 0.0 0.0 0.00 0.00 0.08 79 1007.5
20260903150005 63 90 0.0 0.0 0.00 0.00 0.08 79 1007.7
20260903145706 63 90 0.0 0.0 0.00 0.00 0.08 78 1007.5
20260903145405 63 90 0.0 0.0 0.00 0.00 0.08 79 1007.5
20260903144805 63 112 0.0 0.0 0.00 0.00 0.08 78 1007.7
20260903144506 63 112 0.0 0.0 0.00 0.00 0.08 78 1007.7
20260903144206 63 90 0.0 0.0 0.00 0.00 0.08 79 1007.7
20260903143905 63 90 0.0 0.0 0.00 0.00 0.08 78 1007.7
20260903143306 63 315 0.0 0.0 0.00 0.00 0.08 77 1007.7
20260903143006 63 337 0.0 0.0 0.00 0.00 0.06 77 1008.0
20260903142705 63 270 0.0 0.0 0.00 0.00 0.06 78 1008.0
20260903142405 63 270 0.0 0.0 0.00 0.00 0.06 77 1008.0
20260903142105 63 315 1.0 1.0 0.00 0.00 0.06 77 1008.0
20260903141808 63 315 2.0 2.0 0.00 0.00 0.06 77 1008.2
20260903141507 63 0 1.0 1.0 0.00 0.00 0.06 77 1008.0
20260903141206 64 337 2.0 2.0 0.00 0.00 0.06 78 1008.0
20260903140906 64 247 0.0 0.0 0.00 0.00 0.06 78 1007.7
20260903140607 64 225 0.0 0.0 0.00 0.00 0.06 78 1007.7
20260903140305 64 225 2.0 2.0 0.00 0.00 0.06 78 1008.0
20260903140009 64 225 2.0 2.0 0.00 0.00 0.06 78 1008.0
20260903135705 64 180 3.0 3.0 0.00 0.00 0.06 78 1007.7